Tracking 34717 objects as of 14-Jul-2026
HD Live streaming from Space Station
objects crossing your sky now

OBJECT N

Track OBJECT N now!
10-day predictions


NORAD ID: 44891
Int'l Code: 2019-093M
Perigee: 460.8 km
Apogee: 467.7 km
Inclination: 98.1 °
Period: 93.7 minutes
Semi major axis: 6835 km
RCS: Unknown
Launch date: December 20, 2019
Source: (TBD)
Launch site: Taiyaun Space Center, China (TSC)
Your satellite tracking list
Your tracking list is empty




NASA's NSSDC Master Catalog

Two Line Element Set (TLE):
1 44891U 19093N   26195.51504880  .00015249  00000-0  43316-3 0  9993
2 44891  98.0611   4.8521 0005105 302.8724  57.2026 15.36285694358973
Source of the keplerian elements: AFSPC